When you browse on this site, cookies collect data to enhance your experience and personalize the content and advertising you see.
Visit our Privacy Policy to learn more. By continuing to use the site, you agree to this use of cookies and data.
  • In Portugal
  • List of Countries
  • For 7 days
  • Water Temperature
  • Weather Map
  • Weather Widgets
  • user-avatar
    Login

    Hourly Weather Kitzbuhel

    Today, 21 August, Wednesday

    Time Temperature Precipitation Wind Pressure Humidity
    00:00 +13°C° 0.8 mm 2 mps 683 mmHg 99%
    01:00 +13°C° 0 mm 2 mps 683 mmHg 98%
    02:00 +12°C° 1.5 mm 2 mps 683 mmHg 98%
    03:00 +12°C° 1.5 mm 1 mps 683 mmHg 98%
    04:00 +12°C° 1.5 mm 1 mps 683 mmHg 99%
    05:00 +12°C° 0.7 mm 1 mps 683 mmHg 98%
    06:00 +12°C° 0.7 mm 1 mps 683 mmHg 98%
    07:00 +11°C° 0.7 mm 0 mps 684 mmHg 98%
    08:00 +13°C° 0.2 mm 1 mps 684 mmHg 95%
    09:00 +13°C° 0.2 mm 1 mps 684 mmHg 92%
    10:00 +14°C° 0.2 mm 1 mps 684 mmHg 89%
    11:00 +15°C° 0.1 mm 1 mps 684 mmHg 85%
    12:00 +16°C° 0.1 mm 1 mps 684 mmHg 82%
    13:00 +17°C° 0.1 mm 2 mps 684 mmHg 78%
    14:00 +18°C° 0.1 mm 1 mps 684 mmHg 79%
    15:00 +18°C° 0.1 mm 1 mps 684 mmHg 79%
    16:00 +18°C° 0.1 mm 1 mps 683 mmHg 80%
    17:00 +16°C° 0.1 mm 1 mps 683 mmHg 84%
    18:00 +16°C° 0.1 mm 1 mps 683 mmHg 87%
    19:00 +15°C° 0.1 mm 1 mps 683 mmHg 91%
    20:00 +13°C° 0 mm 0 mps 683 mmHg 93%
    21:00 +13°C° 0 mm 0 mps 683 mmHg 95%
    22:00 +12°C° 0 mm 0 mps 683 mmHg 97%
    23:00 +12°C° 0 mm 0 mps 683 mmHg 96%

    Tomorrow, 22 August, Thursday

    Time Temperature Precipitation Wind Pressure Humidity
    00:00 +12°C° 0 mm 0 mps 683 mmHg 96%
    01:00 +11°C° 0 mm 0 mps 683 mmHg 95%
    02:00 +11°C° 0 mm 0 mps 682 mmHg 95%
    03:00 +11°C° 0 mm 0 mps 682 mmHg 95%
    04:00 +11°C° 0 mm 0 mps 682 mmHg 95%
    05:00 +12°C° 0 mm 0 mps 682 mmHg 93%
    06:00 +13°C° 0 mm 0 mps 682 mmHg 92%
    07:00 +14°C° 0 mm 0 mps 683 mmHg 90%
    08:00 +16°C° 0.1 mm 0 mps 683 mmHg 83%
    09:00 +20°C° 0.1 mm 1 mps 683 mmHg 77%
    10:00 +22°C° 0.1 mm 1 mps 684 mmHg 70%
    11:00 +22°C° 0.2 mm 1 mps 684 mmHg 68%
    12:00 +23°C° 0.2 mm 1 mps 684 mmHg 65%
    13:00 +24°C° 0.2 mm 2 mps 684 mmHg 63%
    14:00 +24°C° 0.7 mm 2 mps 684 mmHg 67%
    15:00 +23°C° 0.7 mm 2 mps 683 mmHg 71%
    16:00 +23°C° 0.7 mm 2 mps 683 mmHg 76%
    17:00 +21°C° 0.6 mm 1 mps 683 mmHg 82%
    18:00 +19°C° 0.6 mm 1 mps 683 mmHg 88%
    19:00 +18°C° 0.6 mm 1 mps 683 mmHg 95%
    20:00 +15°C° 0.2 mm 0 mps 683 mmHg 95%
    21:00 +14°C° 0.2 mm 0 mps 683 mmHg 95%
    22:00 +14°C° 0.2 mm 0 mps 683 mmHg 95%
    23:00 +14°C° 0 mm 0 mps 683 mmHg 95%

    Day after tomorrow, 23 August, Friday

    Time Temperature Precipitation Wind Pressure Humidity
    00:00 +13°C° 0 mm 0 mps 683 mmHg 94%
    01:00 +13°C° 0 mm 0 mps 683 mmHg 94%
    02:00 +13°C° 0 mm 0 mps 683 mmHg 94%
    03:00 +13°C° 0 mm 0 mps 682 mmHg 93%
    04:00 +13°C° 0 mm 0 mps 682 mmHg 93%
    05:00 +14°C° 0 mm 0 mps 682 mmHg 91%
    06:00 +15°C° 0 mm 0 mps 683 mmHg 90%
    07:00 +16°C° 0 mm 0 mps 683 mmHg 88%
    08:00 +18°C° 0.1 mm 0 mps 683 mmHg 81%
    09:00 +22°C° 0.1 mm 1 mps 684 mmHg 74%
    10:00 +24°C° 0.1 mm 1 mps 684 mmHg 67%
    11:00 +24°C° 0.6 mm 1 mps 684 mmHg 68%
    12:00 +24°C° 0.6 mm 1 mps 683 mmHg 69%
    13:00 +24°C° 0.6 mm 1 mps 683 mmHg 70%
    14:00 +24°C° 1 mm 1 mps 683 mmHg 74%
    15:00 +23°C° 1 mm 1 mps 683 mmHg 78%
    16:00 +23°C° 1 mm 1 mps 682 mmHg 82%
    17:00 +22°C° 0.4 mm 1 mps 682 mmHg 86%
    18:00 +20°C° 0.4 mm 1 mps 682 mmHg 90%
    19:00 +19°C° 0.4 mm 1 mps 682 mmHg 94%
    20:00 +18°C° 0.3 mm 1 mps 682 mmHg 94%
    21:00 +18°C° 0.3 mm 1 mps 682 mmHg 94%
    22:00 +16°C° 0.3 mm 1 mps 682 mmHg 93%
    23:00 +16°C° 0 mm 1 mps 681 mmHg 92%

    24 August, Saturday

    Time Temperature Precipitation Wind Pressure Humidity
    00:00 +16°C° 0 mm 1 mps 681 mmHg 91%
    01:00 +15°C° 0 mm 1 mps 681 mmHg 90%
    02:00 +15°C° 0 mm 1 mps 681 mmHg 90%
    03:00 +15°C° 0 mm 1 mps 680 mmHg 89%
    04:00 +15°C° 0 mm 1 mps 680 mmHg 88%
    05:00 +15°C° 0 mm 1 mps 680 mmHg 86%
    06:00 +16°C° 0 mm 1 mps 681 mmHg 85%
    07:00 +18°C° 0 mm 1 mps 681 mmHg 83%
    08:00 +20°C° 0 mm 1 mps 681 mmHg 75%
    09:00 +21°C° 0 mm 0 mps 682 mmHg 66%
    10:00 +23°C° 0 mm 0 mps 682 mmHg 58%
    11:00 +25°C° 0.2 mm 1 mps 682 mmHg 58%
    12:00 +26°C° 0.2 mm 1 mps 682 mmHg 57%
    13:00 +26°C° 0.2 mm 1 mps 682 mmHg 57%
    14:00 +25°C° 1.2 mm 1 mps 681 mmHg 65%
    15:00 +24°C° 1.2 mm 1 mps 681 mmHg 73%
    16:00 +23°C° 1.2 mm 1 mps 680 mmHg 80%
    17:00 +22°C° 0.7 mm 1 mps 680 mmHg 84%
    18:00 +19°C° 0.7 mm 0 mps 680 mmHg 87%
    19:00 +17°C° 0.7 mm 0 mps 680 mmHg 91%
    20:00 +19°C° 0.2 mm 1 mps 680 mmHg 91%
    21:00 +18°C° 0.2 mm 1 mps 680 mmHg 91%
    22:00 +18°C° 0.2 mm 1 mps 680 mmHg 91%
    23:00 +16°C° 0 mm 1 mps 680 mmHg 90%

    25 August, Sunday

    Time Temperature Precipitation Wind Pressure Humidity
    00:00 +16°C° 0 mm 1 mps 679 mmHg 89%
    01:00 +15°C° 0 mm 1 mps 679 mmHg 88%
    02:00 +15°C° 0 mm 1 mps 679 mmHg 88%
    03:00 +15°C° 0 mm 1 mps 679 mmHg 87%
    04:00 +14°C° 0 mm 1 mps 679 mmHg 86%
    05:00 +15°C° 0 mm 1 mps 679 mmHg 84%
    06:00 +16°C° 0 mm 1 mps 679 mmHg 83%
    07:00 +18°C° 0 mm 1 mps 680 mmHg 82%
    08:00 +21°C° 0 mm 1 mps 680 mmHg 73%
    09:00 +23°C° 0 mm 1 mps 681 mmHg 64%
    10:00 +26°C° 0 mm 1 mps 681 mmHg 55%
    11:00 +26°C° 0.1 mm 1 mps 681 mmHg 53%
    12:00 +27°C° 0.1 mm 1 mps 681 mmHg 52%
    13:00 +27°C° 0.1 mm 1 mps 681 mmHg 50%
    14:00 +27°C° 0.8 mm 1 mps 681 mmHg 57%
    15:00 +26°C° 0.8 mm 1 mps 680 mmHg 65%
    16:00 +25°C° 0.8 mm 1 mps 680 mmHg 72%
    17:00 +23°C° 1.3 mm 1 mps 680 mmHg 77%
    18:00 +20°C° 1.3 mm 0 mps 679 mmHg 83%
    19:00 +18°C° 1.3 mm 0 mps 679 mmHg 88%
    20:00 +17°C° 0.4 mm 0 mps 679 mmHg 89%
    21:00 +19°C° 0.4 mm 1 mps 680 mmHg 89%
    22:00 +18°C° 0.4 mm 1 mps 680 mmHg 90%
    23:00 +18°C° 0.4 mm 1 mps 680 mmHg 90%

    26 August, Monday

    Time Temperature Precipitation Wind Pressure Humidity
    00:00 +18°C° 0.4 mm 1 mps 680 mmHg 91%
    01:00 +16°C° 0.4 mm 1 mps 679 mmHg 91%
    02:00 +16°C° 0.1 mm 1 mps 679 mmHg 91%
    03:00 +16°C° 0.1 mm 1 mps 679 mmHg 91%
    04:00 +15°C° 0.1 mm 1 mps 679 mmHg 91%
    05:00 +16°C° 0.1 mm 1 mps 679 mmHg 90%
    06:00 +18°C° 0.1 mm 1 mps 680 mmHg 88%
    07:00 +19°C° 0.1 mm 1 mps 680 mmHg 87%
    08:00 +21°C° 0.4 mm 1 mps 680 mmHg 82%
    09:00 +23°C° 0.4 mm 1 mps 681 mmHg 76%
    10:00 +24°C° 0.4 mm 1 mps 681 mmHg 71%
    11:00 +25°C° 1 mm 1 mps 681 mmHg 69%
    12:00 +25°C° 1 mm 1 mps 681 mmHg 67%
    13:00 +26°C° 1 mm 1 mps 681 mmHg 66%
    14:00 +25°C° 0.9 mm 1 mps 681 mmHg 65%
    15:00 +25°C° 0.9 mm 1 mps 681 mmHg 65%
    16:00 +25°C° 0.9 mm 1 mps 681 mmHg 64%
    17:00 +23°C° 0.2 mm 1 mps 681 mmHg 72%
    18:00 +21°C° 0.2 mm 1 mps 681 mmHg 80%
    19:00 +17°C° 0.2 mm 0 mps 680 mmHg 87%
    20:00 +18°C° 0 mm 1 mps 681 mmHg 87%
    21:00 +18°C° 0 mm 1 mps 681 mmHg 88%
    22:00 +16°C° 0 mm 1 mps 681 mmHg 88%
    23:00 +16°C° 0 mm 1 mps 681 mmHg 88%
    Show more